Location: ?p Thanh B�nh
(16.5833°N, 107.5333°E)
Time: 05:10:16
(UTC+00:00)

Intercosmos 24 - Pass Details

Date: 29 October 2020
Orbit: 498 x 2379 km, 82.6° (Epoch: 27 November)

Event Time Altitude Azimuth Distance (km) Brightness Sun altitude
Exits shadow 21:34:14 - 355° (N) 2,547 7.1 -17.8°
Reaches altitude 10° 21:36:05 10° 355° (N) 1,730 6.2 -17.4°
Maximum altitude 21:39:42 89° 272° (W) 574 3.8 -16.6°
Drops below altitude 10° 21:44:15 10° 176° (S) 2,166 7.0 -15.5°
Sets 21:46:55 0° 176° (S) 3,314 8.0 -14.8°
